Regional Weather Roundup
Issued by NWS

Current Version | Previous Version | Graphics & Text | Print | Product List | Glossary On
Versions: 1 2 3 4 5 6 7 8 9 10 11 12 13 14 15 16 17 18 19 20 21 22 23 24 25 26 27 28 29 30 31 32 33 34 35 36 37 38 39 40 41 42 43 44 45 46 47 48 49 50
000
ASHW40 PHFO 290943
RWRHI

WEATHER ROUNDUP FOR HAWAII
NATIONAL WEATHER SERVICE HONOLULU HI
1100 PM HST WED JUN 28 2017

THIS IS AN AUTOMATED REPORT THAT HAS NOT BEEN QUALITY CONTROLLED.

NOTE..."FAIR" INDICATES FEW OR NO CLOUDS BELOW 12,000 FEET WITH NO
SIGNIFICANT WEATHER AND/OR OBSTRUCTIONS TO VISIBILITY.

* - THESE SITES REPORT LIMITED FIELDS

HIZ001>004-291000-
KAUAI-NIIHAU-

CITY           SKY/WX    TMP DP  RH WIND       PRES   REMARKS
LIHUE APT      PTCLDY    78  68  71 NE18      30.15R
PORT ALLEN*      N/A     77 N/A N/A NE13        N/A
POIPU*           N/A     79 N/A N/A NE8G16      N/A
PRINCEVILLE*     N/A     77 N/A N/A E7G13       N/A
KOKOLE POINT*  NOT AVBL
MOLOAA DAIRY*    N/A     75  68  78 E3G9        N/A
WAIMEA HTS*      N/A     75  61  60 E5G12       N/A
PUU OPAE*      NOT AVBL
PUU LUA*       NOT AVBL
MAKAHA RIDGE*    N/A     70  59  68 N1          N/A
$$

HIZ005>011-291000-
OAHU-

CITY           SKY/WX    TMP DP  RH WIND       PRES   REMARKS
HONOLULU       PTCLDY    78  64  61 NE10G23   30.11R
KALAELOA       MOCLDY    78  64  61 VRB6      30.12R
KANEOHE MCB    PTCLDY    80  70  71 NE8       30.09S
WHEELER FIELD  MOCLDY    75  65  71 NE3       30.11R
BELLOWS*         N/A    N/A N/A N/A NE20        N/A
KAHUKU*          N/A    N/A N/A N/A NE8G16      N/A
WHEELER*         N/A    N/A N/A N/A E2G9        N/A
WAIANAE HARBOR   N/A    N/A N/A N/A E7G16       N/A
DILLINGHAM*      N/A     73  66  78 NW1         N/A
KAHUKU TRN*      N/A     75  66  73 W10G26      N/A
KAWAILOA*        N/A     72  66  83 E10G21      N/A
KII*             N/A     79  70  73 E18G25      N/A
MAKUA RANGE*     N/A     77  64  65 W3G18       N/A
OAHU FOREST NW   N/A     70  64  83 E18G35      N/A
SCHOFIELD BRK*   N/A     72  63  73 MISG        N/A
SCHOFIELD S*   NOT AVBL
WAIANAE VLY*     N/A     88  75  66 S3G21       N/A  HX  97
KUAOKALA*        N/A     73  66  78 NE12G22     N/A
HONOULIUULI*   NOT AVBL
MOKUOLOE IS*   NOT AVBL
PALEHUA*         N/A     66  61  82 NE7G24      N/A
WAIAWA PHB*    NOT AVBL
$$

HIZ012>013-291000-
MOLOKAI-

CITY           SKY/WX    TMP DP  RH WIND       PRES   REMARKS
MOLOKAI AIRPT  PTCLDY    77  68  73 NE10G20   30.12R
KALAUPAPA      NOT AVBL
MAKAPULAPAI*     N/A     77  68  73 E18G26      N/A
MOLOKAI 1*       N/A     66  59  77 NE3G12      N/A
PUU ALII*        N/A     59  57  94 N3G18       N/A
$$

HIZ016-291000-
KAHOOLAWE-

CITY           SKY/WX    TMP DP  RH WIND       PRES   REMARKS
KAHOOLAWE*     NOT AVBL
HAKIOAWA*        N/A     72  65  79 MISG      30.49
HONOKANAIA*      N/A     77  65  66 NE13G23   30.01S
KANELOA*         N/A     75  66  73 E15G30    30.14S
KEALIALALO*    NOT AVBL
LUA MAKIKA*    NOT AVBL
$$

HIZ014>015-291000-
LANAI-

CITY           SKY/WX    TMP DP  RH WIND       PRES   REMARKS
LANAI CITY     FAIR      70  64  81 NE17      30.14S
LANAI 1*         N/A     72  64  78 NE15        N/A
$$

HIZ017>028-291000-
MAUI-

CITY           SKY/WX    TMP DP  RH WIND       PRES   REMARKS
KAHULUI        PTCLDY    77  67  71 NE10      30.09S
KAPALUA-W MAUI NOT AVBL
HANA AIRPORT   MOCLDY    73  68  83 CALM      30.14F
HANA*            N/A     79 N/A N/A NE8         N/A
HALEAKALA SUMM   N/A     41  21  45 NE26G43     N/A
MAALAEA BAY*     N/A     77 N/A N/A N21G32      N/A
HALEAKALA*     NOT AVBL
KAUPO GAP*     NOT AVBL
KULA 1*          N/A     52  35  52 SE6         N/A
$$

HIZ023>026-291000-
BIG ISLAND OF HAWAII COAST AND LOWER SLOPES-

CITY           SKY/WX    TMP DP  RH WIND       PRES   REMARKS
KAILUA KONA    CLEAR     77  65  66 SE8       30.02S
HILO           MOCLDY    76  69  79 N9        30.10R
HONOKAA*         N/A     70 N/A N/A VRB1        N/A
KAWAIHAE MWT*    N/A     81 N/A N/A W10         N/A
KAWAIHAE*        N/A     82 N/A N/A S6        30.01S
SOUTH POINT*     N/A     72 N/A N/A NW9G18      N/A
UPOLU AIRPORT* NOT AVBL
KAMUELA*         N/A     64  63  94 NE25      30.14R
HAKALAU*         N/A     46  43  87 W3          N/A
KALOKO-HONOKO*   N/A     73  64  73 E3G9      30.02S
PALI 2*          N/A     66  57  72 S18G28      N/A
KEALAKOMO*       N/A     75  66  73 N15G29      N/A
KAUPULEHU*       N/A     72  59  64 S7          N/A
KAPAPALA*        N/A     72  53  51 NE5G18      N/A
LOWER KAHUKU*    N/A     57  54  88 N2          N/A
PUHE CS*         N/A     81  57  44 S2          N/A
PUHO CS*         N/A     76  63  64 E2          N/A
PTA KEAMUKU*   NOT AVBL
WAIKOLOA*        N/A    N/A N/A N/A E14G41      N/A
$$

HIZ027>028-291000-
BIG ISLAND OF HAWAII INTERIOR AND SUMMMITS-

CITY           SKY/WX    TMP DP  RH WIND       PRES   REMARKS
BRADSHAW FIELD CLOUDY    51  45  79 SE5       30.37S
MK VISITOR CEN   N/A     45  23  42 VRB7        N/A
MAUNA KEA*       N/A     37 -13  11 NE36        N/A  WCI  24
MAUNA LOA*       N/A     46 -26   4 MISG        N/A
MAUNA LOA 1*   NOT AVBL
PTA KIPUKA*      N/A     61  34  36 E10G24      N/A
PTA RANGE 17*    N/A    N/A N/A N/A SE10G21     N/A
PTA WEST*        N/A     79  61  53 SE16G24     N/A
NENE CABIN*      N/A    N/A N/A N/A NE7G14      N/A
AHUMOA*          N/A     48  39  71 SE5         N/A
PTA PORTABLE*  NOT AVBL
PUU MALI*        N/A     55 N/A N/A E16G28      N/A
$$

HIC003-291000-
NORTHWEST ISLANDS-

CITY           SKY/WX    TMP DP  RH WIND       PRES   REMARKS
MIDWAY ISLAND  PTCLDY    75  72  88 E8        30.17R
MIDWAY NOS*      N/A     75 N/A N/A MISG      30.16R
FRENCH FRIGATE NOT AVBL
$$

PHZ110>124-180-291000-
BUOY REPORTS

STATION/POSITION TIME  TEMP    WIND        PRES    WAVE   SWELL
                       AIR SEA DIR/SP/G            HT/PER HT/DIR
                 (UTC) (F)     (DEG/KT/KT) (MB)    (FT/S) (FT/D)
BUOY 51001       0920   79 81   90/ 12/ 16 1021.3
BUOY 51101       0850   79 80   80/ 12/ 14 1021.8R   5/10   5/ 80
BUOY 51100       NOT AVBL
BUOY 51002       0920   79 79   70/ 19/ 23 1016.5
BUOY 51003       0850   80 80   40/ 12/ 16 1017.9R   7/ 8   7/ 90
BUOY 51004       0850      79   50/ 17/ 19 1016.0R   7/ 7   5/ 70
BARBERS PT BUOY  NOT AVBL
WAIMEA BAY BUOY  0902      78                N/A     5/10   2/ 20
KAILUA BAY BUOY  0904      80                N/A     7/ 7   2/ 60
LANAI BUOY       NOT AVBL
BARBERS PT 2     NOT AVBL
PAUWELA MAUI     0909      78                N/A     6/10   2/ 30
HILO             0927      79                N/A     7/ 7   2/ 60
KANEOHE BAY BUOY 0925      79                N/A     6/ 6   2/ 50
HANALEI KAUAI    0922      80                N/A     5/10   2/ 50
KAHULUI HARBOR   0906   78 80   40/  9/ 15 1019.3
HONOLULU HARBOR  0906   79 80   40/  5/ 12 1020.0
KILO NALU        NOT AVBL
HILO HARBOR      0906   77 79  330/ 10/ 13 1018.9
MOKUOLOE         0836   79 82   70/ 13/ 18 1020.0R
NAWILIWILI       0906   78 82   60/ 13/ 15 1020.3
WHOTS BUOY       NOT AVBL
BUOY 51028       NOT AVBL
$$

......................KEY........................................
  SKY/WX - SKY CONDITIONS/PRESENT WEATHER
  TMP    - TEMPERATURE IN FAHRENHEIT
  DWPT   - DEWPOINT IN FAHRENHEIT
  RH     - RELATIVE HUMIDITY IN PERCENT
  WIND   - DIRECTION AND SPEED /MPH FOR ISLANDS...KTS FOR BUOYS/
  PRES   - MEAN SEA LEVEL PRESSURE IN INCHES OF HG
  VSB    - VISIBILITY IN MILES
  HX     - HEAT INDEX
  WCI    - WIND CHILL INDEX
  VRB    - VARIABLE WIND DIRECTION
  N/A    - NOT AVAILABLE




USA.gov is the U.S. government's official web portal to all federal, state and local government web resources and services.